This demonstration page uses our WeatherBlox Daily Observations layout. Learn more.

Left ArrowRight Arrow

Hourly Observations for July 21, 2019

Temp ( °F °C ) Dew Point ( °F °C ) Humidity (%) Winds ( mph kmh ) Pressure ( in mb ) Visibility ( mi km ) Precip ( " mm )
12:15 am 00:15 Clear 78 25.7 75 24 90 90 N N/A 29.93 1014 10 16 N/A
12:35 am 00:35 Clear 76 24.7 75 23.8 95 95 N N/A 29.94 1014 7 11 N/A
12:55 am 00:55 Clear 76 24.7 75 23.7 94 94 N N/A 29.94 1014 10 16 N/A
1:15 am 01:15 Clear 76 24.7 75 23.8 95 95 N N/A 29.94 1014 7 11 N/A
1:35 am 01:35 Clear 77 25.2 75 23.9 93 93 WNW 3 6 29.93 1014 10 16 N/A
1:55 am 01:55 Clear 76 24.5 75 23.7 95 95 W 3 6 29.93 1014 7 11 N/A
2:15 am 02:15 Clear with Mist and Fog 75 23.8 74 23.2 96 96 W 5 7 29.92 1013 5 8 N/A
2:35 am 02:35 Clear 76 24.5 74 23.6 95 95 SSW 5 7 29.91 1013 7 11 N/A
2:55 am 02:55 Clear 76 24.2 74 23.3 95 95 SSW 5 7 29.91 1013 7 11 N/A
3:15 am 03:15 Clear 78 25.3 74 23.5 90 90 SW 6 9 29.91 1013 7 11 N/A
3:35 am 03:35 Clear 77 24.9 74 23.3 91 91 SW 3 6 29.91 1013 10 16 N/A
3:55 am 03:55 Clear 76 24.4 74 23.2 93 93 SW 3 6 29.90 1013 7 11 N/A
4:15 am 04:15 Clear with Mist and Fog 74 23.5 73 22.8 96 96 N N/A 29.92 1013 5 8 N/A
4:35 am 04:35 Clear with Mist and Fog 74 23.3 73 22.9 98 98 SSW 5 7 29.92 1013 4 6 N/A
4:55 am 04:55 Clear 76 24.4 74 23.1 92 92 SSW 3 6 29.90 1013 7 11 N/A
5:15 am 05:15 Clear with Mist and Fog 75 23.9 73 22.8 94 94 SW 5 7 29.92 1013 7 11 N/A
5:35 am 05:35 Clear with Mist and Fog 74 23.6 73 22.8 95 95 N N/A 29.93 1013 5 8 N/A
5:55 am 05:55 Clear with Mist and Fog 74 23.4 73 22.8 96 96 N N/A 29.93 1013 5 8 N/A
6:15 am 06:15 Clear with Mist and Fog 73 22.9 73 22.6 98 98 N N/A 29.94 1014 2 3 N/A
6:35 am 06:35 Mostly Cloudy with Mist and Fog 73 23 73 22.7 98 98 N N/A 29.94 1014 1 2 N/A
6:55 am 06:55 Sunny with Mist and Fog 74 23.1 73 22.8 98 98 N N/A 29.95 1014 3 4 N/A
7:15 am 07:15 Sunny with Mist and Fog 74 23.4 74 23.1 98 98 N N/A 29.95 1014 2 3 N/A
7:35 am 07:35 Sunny with Mist and Fog 76 24.4 74 23.6 95 95 N N/A 29.95 1014 4 6 N/A
7:55 am 07:55 Sunny with Mist and Fog 77 25.2 75 23.9 93 93 SW 3 6 29.96 1015 5 8 N/A
8:15 am 08:15 Sunny with Mist and Fog 78 25.7 75 23.9 90 90 N N/A 29.96 1015 7 11 N/A
8:35 am 08:35 Sunny 80 26.4 75 24 87 87 SW 3 6 29.96 1015 7 11 N/A
8:55 am 08:55 Sunny 80 26.7 75 24.1 86 86 SW 5 7 29.96 1015 10 16 N/A
9:15 am 09:15 Sunny 82 27.6 76 24.2 82 82 S 5 7 29.96 1014 10 16 N/A
9:35 am 09:35 Sunny 83 28.3 76 24.6 80 80 WSW 6 9 29.95 1014 10 16 N/A
9:55 am 09:55 Sunny 84 29 77 24.8 78 78 SW 7 11 29.94 1014 10 16 N/A
10:15 am 10:15 Sunny 85 29.5 77 25 77 77 SW 6 9 29.94 1014 10 16 N/A
10:35 am 10:35 Partly Cloudy 85 29.6 76 24.2 73 73 W 9 15 29.94 1014 10 16 N/A
10:55 am 10:55 Sunny 87 30.3 77 24.8 72 72 W 8 13 29.95 1014 10 16 N/A
11:15 am 11:15 Partly Cloudy 87 30.5 76 24.3 70 70 SW 6 9 29.95 1014 10 16 N/A
11:35 am 11:35 Mostly Cloudy 87 30.4 75 23.9 68 68 W 8 13 29.95 1014 10 16 N/A
11:55 am 11:55 Mostly Cloudy 86 30.2 76 24.3 71 71 WNW 5 7 29.94 1014 10 16 N/A
12:15 pm 12:15 Sunny 88 31.1 75 24 66 66 WSW 7 11 29.94 1014 10 16 N/A
12:35 pm 12:35 Partly Cloudy 87 30.8 75 23.7 66 66 SSW 7 11 29.94 1014 10 16 N/A
12:55 pm 12:55 Sunny 87 30.4 75 23.9 68 68 SW 7 11 29.93 1014 10 16 N/A
1:15 pm 13:15 Sunny 87 30.6 76 24.2 69 69 SW 8 13 29.92 1013 10 16 N/A
1:35 pm 13:35 Sunny 88 30.9 74 23.5 65 65 SW 6 9 29.91 1013 10 16 N/A
1:55 pm 13:55 Sunny 89 31.7 74 23.6 62 62 WSW 3 6 29.91 1013 10 16 N/A
2:15 pm 14:15 Sunny 90 32.4 76 24.4 63 63 SSW 7 11 29.90 1012 10 16 N/A
2:35 pm 14:35 Partly Cloudy 89 31.7 75 23.7 63 63 SW 7 11 29.89 1012 10 16 N/A
2:55 pm 14:55 Cloudy 84 29.1 74 23.1 70 70 SE 15 24 29.89 1012 10 16 N/A
3:15 pm 15:15 Sunny 87 30.8 74 23.2 64 64 SE 8 13 29.88 1012 10 16 N/A
3:35 pm 15:35 Sunny 89 31.6 74 23.3 61 61 S 7 11 29.87 1011 10 16 N/A
3:55 pm 15:55 Sunny 90 32.4 74 23.6 60 60 SSW 7 11 29.86 1011 10 16 N/A
4:15 pm 16:15 Sunny 90 32.3 76 24.3 63 63 S 14 22 29.86 1011 10 16 N/A
4:35 pm 16:35 Partly Cloudy 88 31.2 75 24.1 66 66 SSE 13 20 29.86 1011 10 16 N/A
4:55 pm 16:55 Mostly Cloudy 88 31.1 75 23.9 66 66 SSE 14 22 29.86 1011 10 16 N/A
5:15 pm 17:15 Cloudy 86 29.8 75 24 71 71 S 17 28 29.87 1012 10 16 N/A
5:35 pm 17:35 Mostly Cloudy with Light Rain 78 25.3 71 21.4 79 79 SSE 10 17 29.86 1011 7 11 N/A
5:55 pm 17:55 Mostly Cloudy with Thunderstorms 79 26.2 75 24.1 88 88 W 3 6 29.84 1011 10 16 N/A
6:15 pm 18:15 Mostly Cloudy with Thunderstorms 81 27.4 76 24.2 83 83 S 14 22 29.87 1011 7 11 N/A
6:35 pm 18:35 Mostly Cloudy with Heavy Thunderstorms 75 24 71 21.6 87 87 NW 18 30 29.90 1012 4 6 N/A
6:55 pm 18:55 Cloudy with Thunderstorms 73 23 70 21.2 90 90 N 5 7 29.89 1012 10 16 N/A
7:15 pm 19:15 Sunny 74 23.5 71 21.9 91 91 N N/A 29.89 1012 10 16 N/A
7:35 pm 19:35 Sunny 75 24 72 22 89 89 N N/A 29.89 1012 10 16 N/A
7:55 pm 19:55 Sunny 75 23.7 72 22 90 90 N N/A 29.90 1012 10 16 N/A
8:15 pm 20:15 Sunny 75 24 72 22.2 90 90 N N/A 29.89 1012 10 16 N/A
8:35 pm 20:35 Sunny 75 23.9 73 22.6 92 92 N N/A 29.89 1012 10 16 0.01 0.25
8:55 pm 20:55 Sunny 75 23.7 73 22.8 95 95 N N/A 29.89 1012 10 16 0.01 0.25
9:15 pm 21:15 Clear with Nearby Thunderstorms 74 23.6 73 23 96 96 N N/A 29.89 1012 10 16 N/A
9:35 pm 21:35 Clear with Nearby Thunderstorms 74 23.6 74 23.1 97 97 NNW 8 13 29.89 1012 10 16 N/A
9:55 pm 21:55 Cloudy 75 23.9 71 21.4 86 86 NNW 10 17 29.91 1013 10 16 N/A
10:15 pm 22:15 Cloudy with Heavy Thunderstorms 73 22.6 70 21.2 92 92 NNW 3 6 29.93 1013 5 8 N/A
10:35 pm 22:35 Cloudy with Heavy Thunderstorms 71 21.8 70 21.1 96 96 ENE 7 11 29.91 1013 3 5 N/A
10:55 pm 22:55 Mostly Cloudy with Light Rain 72 22 70 21.3 96 96 N N/A 29.90 1013 7 11 N/A
11:15 pm 23:15 Partly Cloudy with Light Rain 72 22.2 71 21.7 97 97 N N/A 29.90 1013 10 16 0.01 0.25
11:35 pm 23:35 Partly Cloudy 71 21.9 71 21.5 98 98 WNW 3 6 29.90 1013 10 16 0.01 0.25
11:55 pm 23:55 Clear 71 21.9 71 21.5 98 98 N N/A 29.90 1013 10 16 0.02 0.51

Powered by AerisWeather